Previsão horária em Cerkovische

Hoje, 29 Julho, Quinta-feira

Tempo Temperatura Precipitação Vento Pressão Humidade
00:00 +21°C° 0 mm 1 m/s 745 mmHg 80%
01:00 +20°C° 0 mm 1 m/s 745 mmHg 82%
02:00 +20°C° 0 mm 1 m/s 745 mmHg 85%
03:00 +20°C° 0 mm 1 m/s 745 mmHg 84%
04:00 +19°C° 0 mm 2 m/s 745 mmHg 83%
05:00 +19°C° 0 mm 2 m/s 745 mmHg 83%
06:00 +19°C° 0.1 mm 2 m/s 745 mmHg 82%
07:00 +20°C° 0.1 mm 2 m/s 745 mmHg 81%
08:00 +23°C° 0 mm 2 m/s 745 mmHg 76%
09:00 +24°C° 0.1 mm 2 m/s 744 mmHg 72%
10:00 +25°C° 0.1 mm 2 m/s 744 mmHg 68%
11:00 +26°C° 0.1 mm 2 m/s 744 mmHg 63%
12:00 +25°C° 0.4 mm 2 m/s 744 mmHg 71%
13:00 +24°C° 0.4 mm 3 m/s 744 mmHg 79%
14:00 +22°C° 0.4 mm 3 m/s 743 mmHg 87%
15:00 +22°C° 1 mm 3 m/s 743 mmHg 85%
16:00 +24°C° 1 mm 3 m/s 743 mmHg 83%
17:00 +24°C° 1 mm 3 m/s 743 mmHg 81%
18:00 +22°C° 0.4 mm 3 m/s 743 mmHg 83%
19:00 +21°C° 0.4 mm 3 m/s 743 mmHg 86%
20:00 +20°C° 0.4 mm 2 m/s 743 mmHg 89%
21:00 +19°C° 0 mm 2 m/s 743 mmHg 89%
22:00 +18°C° 0 mm 3 m/s 743 mmHg 90%
23:00 +18°C° 0 mm 3 m/s 744 mmHg 90%

Amanhã, 30 Julho, Sexta-feira

Tempo Temperatura Precipitação Vento Pressão Humidade
00:00 +17°C° 0 mm 3 m/s 744 mmHg 91%
01:00 +17°C° 0 mm 3 m/s 744 mmHg 91%
02:00 +17°C° 0 mm 3 m/s 744 mmHg 91%
03:00 +16°C° 0 mm 3 m/s 744 mmHg 92%
04:00 +16°C° 0 mm 3 m/s 744 mmHg 93%
05:00 +15°C° 0 mm 2 m/s 744 mmHg 94%
06:00 +17°C° 0 mm 3 m/s 744 mmHg 89%
07:00 +18°C° 0 mm 3 m/s 744 mmHg 83%
08:00 +20°C° 0 mm 3 m/s 744 mmHg 78%
09:00 +21°C° 0.3 mm 4 m/s 744 mmHg 70%
10:00 +22°C° 0.3 mm 5 m/s 743 mmHg 62%
11:00 +23°C° 0.3 mm 5 m/s 743 mmHg 54%
12:00 +23°C° 0 mm 6 m/s 743 mmHg 48%
13:00 +24°C° 0 mm 7 m/s 743 mmHg 42%
14:00 +24°C° 0 mm 7 m/s 743 mmHg 36%
15:00 +24°C° 0 mm 7 m/s 743 mmHg 39%
16:00 +24°C° 0 mm 7 m/s 742 mmHg 42%
17:00 +23°C° 0 mm 6 m/s 742 mmHg 45%
18:00 +22°C° 0 mm 6 m/s 742 mmHg 50%
19:00 +21°C° 0 mm 5 m/s 742 mmHg 54%
20:00 +20°C° 0 mm 4 m/s 742 mmHg 59%
21:00 +19°C° 0 mm 4 m/s 742 mmHg 62%
22:00 +18°C° 0 mm 4 m/s 742 mmHg 66%
23:00 +15°C° 0 mm 5 m/s 741 mmHg 69%

Depois de amanhã, 31 Julho, Sábado

Tempo Temperatura Precipitação Vento Pressão Humidade
00:00 +15°C° 0 mm 5 m/s 741 mmHg 68%
01:00 +15°C° 0 mm 5 m/s 741 mmHg 68%
02:00 +15°C° 0 mm 5 m/s 741 mmHg 67%
03:00 +15°C° 0 mm 5 m/s 741 mmHg 68%
04:00 +15°C° 0 mm 5 m/s 742 mmHg 70%
05:00 +15°C° 0 mm 6 m/s 742 mmHg 71%
06:00 +16°C° 0 mm 6 m/s 742 mmHg 68%
07:00 +19°C° 0 mm 6 m/s 742 mmHg 64%
08:00 +20°C° 0 mm 7 m/s 742 mmHg 61%
09:00 +21°C° 0 mm 7 m/s 742 mmHg 57%
10:00 +23°C° 0 mm 7 m/s 743 mmHg 52%
11:00 +24°C° 0 mm 7 m/s 743 mmHg 47%
12:00 +26°C° 0 mm 7 m/s 743 mmHg 45%
13:00 +26°C° 0 mm 6 m/s 743 mmHg 43%
14:00 +27°C° 0 mm 6 m/s 743 mmHg 41%
15:00 +27°C° 0 mm 5 m/s 743 mmHg 43%
16:00 +27°C° 0 mm 5 m/s 743 mmHg 45%
17:00 +26°C° 0 mm 4 m/s 743 mmHg 47%
18:00 +25°C° 0 mm 3 m/s 743 mmHg 53%
19:00 +23°C° 0 mm 2 m/s 743 mmHg 60%
20:00 +22°C° 0 mm 1 m/s 743 mmHg 67%
21:00 +20°C° 0 mm 2 m/s 743 mmHg 68%
22:00 +20°C° 0 mm 2 m/s 743 mmHg 68%
23:00 +20°C° 0 mm 2 m/s 742 mmHg 69%

1 Agosto, Domingo

Tempo Temperatura Precipitação Vento Pressão Humidade
00:00 +20°C° 0 mm 3 m/s 742 mmHg 70%
01:00 +20°C° 0 mm 3 m/s 742 mmHg 70%
02:00 +20°C° 0 mm 4 m/s 742 mmHg 71%
03:00 +19°C° 0.1 mm 4 m/s 742 mmHg 77%
04:00 +18°C° 0.1 mm 4 m/s 742 mmHg 83%
05:00 +18°C° 0.1 mm 4 m/s 742 mmHg 89%
06:00 +19°C° 0 mm 4 m/s 742 mmHg 84%
07:00 +20°C° 0 mm 5 m/s 742 mmHg 79%
08:00 +21°C° 0 mm 5 m/s 742 mmHg 74%
09:00 +22°C° 0 mm 5 m/s 742 mmHg 65%
10:00 +24°C° 0 mm 6 m/s 743 mmHg 55%
11:00 +26°C° 0 mm 6 m/s 743 mmHg 46%
12:00 +26°C° 0 mm 6 m/s 743 mmHg 44%
13:00 +27°C° 0 mm 6 m/s 743 mmHg 43%
14:00 +27°C° 0 mm 6 m/s 743 mmHg 41%
15:00 +27°C° 0 mm 6 m/s 743 mmHg 42%
16:00 +27°C° 0 mm 6 m/s 743 mmHg 43%
17:00 +27°C° 0 mm 5 m/s 743 mmHg 44%
18:00 +25°C° 0 mm 4 m/s 743 mmHg 50%
19:00 +23°C° 0 mm 4 m/s 743 mmHg 56%
20:00 +21°C° 0 mm 3 m/s 743 mmHg 62%
21:00 +20°C° 0 mm 2 m/s 743 mmHg 66%
22:00 +19°C° 0 mm 2 m/s 744 mmHg 70%
23:00 +18°C° 0 mm 2 m/s 744 mmHg 74%

2 Agosto, Segunda-feira

Tempo Temperatura Precipitação Vento Pressão Humidade
00:00 +19°C° 0 mm 1 m/s 744 mmHg 76%
01:00 +19°C° 0 mm 1 m/s 743 mmHg 79%
02:00 +18°C° 0 mm 1 m/s 743 mmHg 81%
03:00 +18°C° 0 mm 1 m/s 743 mmHg 81%
04:00 +18°C° 0 mm 1 m/s 743 mmHg 81%
05:00 +18°C° 0 mm 1 m/s 743 mmHg 81%
06:00 +18°C° 0.5 mm 1 m/s 743 mmHg 83%
07:00 +19°C° 0.5 mm 1 m/s 742 mmHg 85%
08:00 +19°C° 0.5 mm 1 m/s 742 mmHg 86%
09:00 +18°C° 0.8 mm 1 m/s 742 mmHg 89%
10:00 +18°C° 0.8 mm 1 m/s 742 mmHg 91%
11:00 +17°C° 0.8 mm 2 m/s 742 mmHg 94%
12:00 +17°C° 1.7 mm 2 m/s 741 mmHg 95%
13:00 +17°C° 1.7 mm 3 m/s 741 mmHg 96%
14:00 +16°C° 1.7 mm 3 m/s 741 mmHg 97%
15:00 +16°C° 1.5 mm 3 m/s 742 mmHg 96%
16:00 +15°C° 1.5 mm 4 m/s 742 mmHg 96%
17:00 +14°C° 1.5 mm 4 m/s 742 mmHg 96%
18:00 +14°C° 0.2 mm 4 m/s 742 mmHg 96%
19:00 +14°C° 0.2 mm 3 m/s 742 mmHg 95%
20:00 +14°C° 0.2 mm 3 m/s 742 mmHg 95%
21:00 +14°C° 0.5 mm 3 m/s 742 mmHg 95%
22:00 +15°C° 0.5 mm 2 m/s 743 mmHg 95%
23:00 +15°C° 0.5 mm 2 m/s 743 mmHg 94%

3 Agosto, Terça-feira

Tempo Temperatura Precipitação Vento Pressão Humidade
00:00 +15°C° 1.2 mm 2 m/s 743 mmHg 95%
01:00 +13°C° 1.2 mm 3 m/s 743 mmHg 96%
02:00 +13°C° 1.2 mm 3 m/s 743 mmHg 97%
03:00 +13°C° 0.2 mm 3 m/s 743 mmHg 96%
04:00 +13°C° 0.2 mm 3 m/s 743 mmHg 96%
05:00 +13°C° 0.2 mm 3 m/s 744 mmHg 96%
06:00 +13°C° 0.1 mm 3 m/s 744 mmHg 95%
07:00 +14°C° 0.1 mm 3 m/s 744 mmHg 94%
08:00 +14°C° 0.1 mm 4 m/s 745 mmHg 93%
09:00 +15°C° 0.2 mm 4 m/s 745 mmHg 85%
10:00 +17°C° 0.2 mm 4 m/s 745 mmHg 78%
11:00 +18°C° 0.2 mm 4 m/s 746 mmHg 70%
12:00 +18°C° 0.1 mm 4 m/s 746 mmHg 64%
13:00 +19°C° 0.1 mm 4 m/s 746 mmHg 58%
14:00 +20°C° 0.1 mm 4 m/s 746 mmHg 52%
15:00 +20°C° 0 mm 4 m/s 746 mmHg 51%
16:00 +20°C° 0 mm 4 m/s 746 mmHg 50%
17:00 +21°C° 0 mm 3 m/s 746 mmHg 48%
18:00 +19°C° 0 mm 3 m/s 747 mmHg 54%
19:00 +17°C° 0 mm 2 m/s 747 mmHg 59%
20:00 +16°C° 0 mm 2 m/s 747 mmHg 65%
21:00 +15°C° 0 mm 2 m/s 748 mmHg 68%
22:00 +14°C° 0 mm 1 m/s 748 mmHg 70%
23:00 +13°C° 0 mm 1 m/s 748 mmHg 73%
Mostrar mais

Necessitamos do seu Consentimento

A Meteoprog e os seus Fornecedores de Serviços podem armazenar e aceder a dados pessoais como cookies, identificadores do dispositivo ou outras tecnologias semelhantes existentes no seu dispositivo e processar estes dados para personalizar conteúdos e anúncios, assim como funcionalidades nas redes sociais e análise de tráfego.

  • Armazenar e/ou aceder a informações no seu dispositivo

    Os cookies, identificadores do dispositivo ou outras informações podem ser armazenados ou acedidos no seu dispositivo, para os fins acima indicados.

  • Anúncios e conteúdos personalizados, medição de anúncios e conteúdos, dados sobre o público-alvo e desenvolvimento de produtos

    Os anúncios e os conteúdos podem ser personalizados com base num perfil. Podem ser adicionados dados adicionais para uma maior personalização dos anúncios e dos conteúdos. A eficácia dos anúncios e dos conteúdos pode ser medida. Podem ser obtidas informações sobre o público que visualizou os anúncios e os conteúdos. Estes dados podem ser usados para desenvolver ou melhorar sistemas, softwares ou a experiência do utilizador.

Ao clicar em "Eu concordo”, permitirá o uso de cookies, identificadores do dispositivo e web beacons mencionados ou outras tecnologias semelhantes. As configurações do navegador do seu dispositivo podem ser alteradas.

Para certos fins, podem ser invocados interesses legítimos ao invés de consentimento. Pode ler mais informação sobre este assunto na nossa Política de Privacidade e Cookies.